This is the latest recevied weather packets stored in our database for station/object N5PA. If no packets are shown the sender has not sent any weather packets the latest 10 day(s).
| Time | Temp. | Humidity | Pressure | Rain* | Wind** | Luminosity | Snow |
|---|---|---|---|---|---|---|---|
| 1778070006 | 21.67° C | 40% | 1013.1 hPa | 0 mm | - | 998 W/m² | - |
| 1778069707 | 21.11° C | 40% | 1013 hPa | 0 mm | - | 998 W/m² | - |
| 1778069406 | 21.11° C | 41% | 1013 hPa | 0 mm | - | 998 W/m² | - |
| 1778069106 | 21.11° C | 41% | 1012.9 hPa | 0 mm | - | 998 W/m² | - |
| 1778068806 | 21.11° C | 41% | 1012.8 hPa | 0 mm | - | 997 W/m² | - |
| 1778068505 | 21.11° C | 41% | 1012.7 hPa | 0 mm | - | 995 W/m² | - |
| 1778068206 | 21.11° C | 41% | 1012.8 hPa | 0 mm | - | 998 W/m² | - |
| 1778067906 | 21.11° C | 41% | 1012.8 hPa | 0 mm | - | 997 W/m² | - |
| 1778067607 | 21.11° C | 41% | 1012.6 hPa | 0 mm | - | 998 W/m² | - |
| 1778067306 | 21.11° C | 41% | 1012.5 hPa | 0 mm | - | 998 W/m² | - |
| 1778067005 | 21.11° C | 41% | 1012.4 hPa | 0 mm | - | 998 W/m² | - |
| 1778066706 | 21.11° C | 42% | 1012.6 hPa | 0 mm | - | 998 W/m² | - |
| 1778066405 | 21.11° C | 42% | 1012.6 hPa | 0 mm | - | 998 W/m² | - |
| 1778066107 | 21.11° C | 43% | 1012.6 hPa | 0 mm | - | 997 W/m² | - |
| 1778065806 | 21.11° C | 43% | 1012.5 hPa | 0 mm | - | 997 W/m² | - |
| 1778065506 | 21.11° C | 44% | 1012.3 hPa | 0 mm | - | 997 W/m² | - |
| 1778065206 | 21.11° C | 44% | 1012.3 hPa | 0 mm | - | 997 W/m² | - |
| 1778064906 | 21.11° C | 45% | 1012.3 hPa | 0 mm | - | 993 W/m² | - |
| 1778064606 | 21.11° C | 45% | 1012.2 hPa | 0 mm | - | 997 W/m² | - |
| 1778064306 | 21.11° C | 45% | 1012.2 hPa | 0 mm | - | 997 W/m² | - |
| 1778064006 | 21.11° C | 46% | 1012.2 hPa | 0 mm | - | 997 W/m² | - |
| 1778063705 | 21.11° C | 47% | 1012.3 hPa | 0 mm | - | 997 W/m² | - |
| 1778063406 | 21.11° C | 47% | 1012.4 hPa | 0 mm | - | 995 W/m² | - |
| 1778063105 | 21.11° C | 48% | 1012.4 hPa | 0 mm | - | 998 W/m² | - |
| 1778062805 | 21.11° C | 49% | 1012.4 hPa | 0 mm | - | 997 W/m² | - |
* Rain latest hour (hover to see other rain measurements)
** Current wind speed in m/s (hover to see current wind gust speed)